Chievres, Belgium

2:13 AM CEST on July 24, 2017 (GMT +0200)
Chievres Air Base

Weather History for EBCV - October, 2012

Change the Weather History Date:

Tuesday, October 16, 2012

  Actual Average Record
Temperature  
Mean Temperature 52 °F -  
Max Temperature 57 °F 50 °F 69 °F (2006)
Min Temperature 46 °F 42 °F 32 °F (2011)
Degree Days  
Heating Degree Days 14    
Growing Degree Days 2 (Base 50)    
Moisture  
Dew Point 46 °F    
Average Humidity 82    
Maximum Humidity 100    
Minimum Humidity 63    
Precipitation  
Precipitation 0.04 in - - ()
Sea Level Pressure  
Sea Level Pressure 29.70 in    
Wind  
Wind Speed 13 mph ()    
Max Wind Speed 22 mph    
Max Gust Speed -    
Visibility 6.3 miles    
Events Rain    
Averages and records for this station are not official NWS values.
T = Trace of Precipitation, MM = Missing Value Source: Averaged Metar Reports

Daily Weather History Graph

Daily Weather History Graph

Search for Another Location

Airport or City:

Trip Planner

Search our weather history database for the weather conditions in past years. The results will help you decide how hot, cold, wet, or windy it might be!

Date:

Astronomy

Oct. 16, 2012 Rise Set
Actual Time 8:09 AM CEST 6:50 PM CEST
Civil Twilight 7:36 AM CEST 7:23 PM CEST
Nautical Twilight 6:58 AM CEST 8:00 PM CEST
Astronomical Twilight 6:20 AM CEST 8:38 PM CEST
Moon 9:25 AM CEST (10/16) 7:08 PM CEST (10/16)
Length of Visible Light 11h 46m
Length of Day
10h 40m
New Moon, 1% of the Moon is Illuminated
Oct 16
New Moon
Oct 22
First Quarter
Oct 29
Full
Nov 7
Last Quarter
Nov 13
New

Hourly Weather History & Observations

Time (CEST) Temp. Windchill Dew Point Humidity Pressure Visibility Wind Dir Wind Speed Gust Speed Precip Events Conditions
12:25 AM 48.2 °F - 42.8 °F 82% 29.74 in 6.2 mi South 15.0 mph - N/A   Clear
1:25 AM 48.2 °F - 42.8 °F 82% 29.74 in 6.2 mi South 13.8 mph - N/A   Clear
2:00 AM 48 °F - 43 °F 77% 29.74 in 25 mi South 13.4 mph - -   Clear
2:25 AM 46.4 °F 41.1 °F 42.8 °F 87% 29.71 in 6.2 mi South 11.5 mph - N/A   Clear
3:25 AM 48.2 °F - 42.8 °F 82% 29.71 in 6.2 mi South 13.8 mph - N/A   Clear
4:25 AM 48.2 °F - 42.8 °F 82% 29.68 in 6.2 mi South 13.8 mph - N/A   Mostly Cloudy
5:00 AM 48 °F - 43 °F 77% 29.68 in 28 mi South 15.7 mph - -   Partly Cloudy
5:25 AM 48.2 °F - 42.8 °F 82% 29.62 in 6.2 mi South 16.1 mph - N/A   Mostly Cloudy
6:25 AM 48.2 °F - 44.6 °F 87% 29.62 in 6.2 mi South 16.1 mph - N/A Rain Light Rain
7:06 AM 50.0 °F - 46.4 °F 87% 29.62 in 6.2 mi South 17.3 mph - N/A Rain Light Rain
7:25 AM 48.2 °F - 46.4 °F 93% 29.62 in 4.3 mi South 18.4 mph - N/A Rain Rain
8:00 AM 49 °F - 46 °F 87% 29.63 in 4 mi South 17.9 mph - - Rain Light Rain
8:21 AM 48.2 °F - 46.4 °F 93% 29.62 in 3.1 mi South 17.3 mph - N/A Rain Rain
8:25 AM 48.2 °F - 46.4 °F 93% 29.62 in 3.1 mi South 17.3 mph - N/A Rain Rain
9:25 AM 48.2 °F - 46.4 °F 93% 29.62 in 3.1 mi South 16.1 mph - N/A Rain Light Rain
10:25 AM 48.2 °F - 46.4 °F 93% 29.65 in - South 15.0 mph - N/A Rain Rain
10:41 AM 48.2 °F - 46.4 °F 93% 29.62 in 6.2 mi South 21.9 mph - N/A Rain Light Drizzle
10:51 AM 48.2 °F - 48.2 °F 100% 29.65 in 6.2 mi South 13.8 mph - N/A   Mostly Cloudy
11:00 AM - - - %  in - Calm Calm - - Rain Rain
12:25 PM - - - N/A% 0.00 in - North - - N/A   Unknown
12:38 PM 55.4 °F - 50.0 °F 82% 29.68 in 6.2 mi SW 15.0 mph - N/A   Scattered Clouds
12:41 PM 55.4 °F - 50.0 °F 82% 29.68 in 6.2 mi SW 15.0 mph - N/A   Partly Cloudy
1:25 PM 55.4 °F - 48.2 °F 77% 29.68 in 6.2 mi SW 16.1 mph - N/A   Partly Cloudy
2:00 PM 56 °F - 48 °F 66% 29.71 in 9 mi SW 17.9 mph - -   Clear
2:25 PM 57.2 °F - 48.2 °F 72% 29.71 in 6.2 mi SW 15.0 mph - N/A   Partly Cloudy
3:25 PM 57.2 °F - 46.4 °F 67% 29.71 in 6.2 mi SW 12.7 mph - N/A   Partly Cloudy
4:25 PM 57.2 °F - 46.4 °F 67% 29.74 in 6.2 mi SW 16.1 mph - N/A   Partly Cloudy
5:00 PM 56 °F - 47 °F 63% 29.75 in 12 mi SW 13.4 mph - -   Clear
5:25 PM 55.4 °F - 46.4 °F 72% 29.74 in 6.2 mi SW 12.7 mph - N/A   Partly Cloudy
6:25 PM 53.6 °F - 46.4 °F 77% 29.74 in 6.2 mi SW 11.5 mph - N/A   Partly Cloudy
7:25 PM 50.0 °F - 44.6 °F 82% 29.77 in 6.2 mi South 6.9 mph - N/A   Partly Cloudy
8:00 PM 51 °F - 46 °F 77% 29.80 in 10 mi South 8.9 mph - -   Clear
8:25 PM 51.8 °F - 46.4 °F 82% 29.80 in 6.2 mi SSW 10.4 mph - N/A   Partly Cloudy
9:25 PM 48.2 °F - 44.6 °F 87% 29.80 in 6.2 mi South 6.9 mph - N/A   Clear
10:25 PM 48.2 °F - 44.6 °F 87% 29.80 in 6.2 mi South 9.2 mph - N/A   Clear
11:00 PM 47 °F - 44 °F 86% 29.82 in 9 mi South 8.9 mph - -  
11:25 PM 48.2 °F - 44.6 °F 87% 29.80 in 6.2 mi South 8.1 mph - N/A   Clear